Salida, CO

4:23 PM MDT on May 24, 2018 (GMT -0600)
Salida

Weather History for KANK - July, 2013

Change the Weather History Date:

Sunday, July 14, 2013

  Actual Average (KGUC) Record (KGUC)
Temperature  
Mean Temperature 72 °F -  
Max Temperature 85 °F 77 °F 87 °F (2003)
Min Temperature 59 °F 44 °F 37 °F (1997)
Cooling Degree Days 7    
Growing Degree Days 22 (Base 50)    
Moisture  
Dew Point 51 °F    
Average Humidity 60    
Maximum Humidity 94    
Minimum Humidity 20    
Precipitation  
Precipitation 0.00 in - - ()
Sea Level Pressure  
Sea Level Pressure 30.42 in    
Wind  
Wind Speed 5 mph (West)    
Max Wind Speed 26 mph    
Max Gust Speed 36 mph    
Visibility 9 miles    
Events      
Averages and records for this station are not official NWS values.
T = Trace of Precipitation, MM = Missing Value Source: NWS Daily Summary

Daily Weather History Graph

Daily Weather History Graph

Search for Another Location

Airport or City:

Astronomy

Jul. 14, 2013 Rise Set
Actual Time 5:51 AM MDT 8:28 PM MDT
Civil Twilight 5:20 AM MDT 8:59 PM MDT
Nautical Twilight 4:42 AM MDT 9:37 PM MDT
Astronomical Twilight 3:58 AM MDT 10:20 PM MDT
Moon 12:06 PM MDT (7/14) 11:47 PM MDT (7/14)
Length of Visible Light 15h 38m
Length of Day
14h 36m
Waxing Crescent, 35% of the Moon is Illuminated
Jul 14
Waxing Crescent
Jul 15
First Quarter
Jul 22
Full
Jul 29
Last Quarter
Aug 6
New

Hourly Weather History & Observations

Time (MDT) Temp. Dew Point Humidity Pressure Visibility Wind Dir Wind Speed Gust Speed Precip Events Conditions
12:15 AM 70.7 °F 49.5 °F 47% 30.42 in 10.0 mi Calm Calm - N/A   Scattered Clouds
12:35 AM 69.8 °F 50.2 °F 50% 30.42 in 10.0 mi Calm Calm - N/A   Scattered Clouds
12:55 AM 70.2 °F 48.7 °F 46% 30.41 in 10.0 mi SW 4.6 mph - N/A   Clear
1:15 AM 68.0 °F 49.1 °F 51% 30.41 in 10.0 mi SSW 6.9 mph - N/A   Clear
1:35 AM 67.1 °F 49.3 °F 53% 30.41 in 10.0 mi SW 5.8 mph - N/A   Scattered Clouds
1:55 AM 66.4 °F 49.5 °F 54% 30.40 in 10.0 mi SSW 4.6 mph - N/A   Clear
2:15 AM 64.4 °F 50.2 °F 60% 30.40 in 10.0 mi SW 5.8 mph - N/A   Clear
2:35 AM 63.5 °F 49.6 °F 61% 30.40 in 10.0 mi SW 4.6 mph - N/A   Clear
2:55 AM 62.6 °F 49.3 °F 62% 30.40 in 10.0 mi SSW 3.5 mph - N/A   Clear
3:15 AM 61.9 °F 49.3 °F 63% 30.41 in 10.0 mi SW 3.5 mph - N/A   Clear
3:35 AM 62.1 °F 49.6 °F 64% 30.41 in 10.0 mi WSW 4.6 mph - N/A   Clear
3:55 AM 62.1 °F 49.1 °F 62% 30.42 in 10.0 mi WNW 5.8 mph - N/A   Clear
4:15 AM 61.7 °F 48.7 °F 62% 30.42 in 10.0 mi West 5.8 mph - N/A   Clear
4:35 AM 60.4 °F 48.6 °F 65% 30.42 in 10.0 mi WNW 6.9 mph - N/A   Clear
4:55 AM 60.1 °F 48.6 °F 66% 30.43 in 10.0 mi West 5.8 mph - N/A   Clear
5:15 AM 60.8 °F 48.6 °F 64% 30.44 in 10.0 mi West 8.1 mph - N/A   Clear
5:35 AM 60.4 °F 48.6 °F 65% 30.44 in 10.0 mi WNW 9.2 mph - N/A   Clear
5:55 AM 60.1 °F 48.4 °F 65% 30.45 in 10.0 mi West 4.6 mph - N/A   Clear
6:15 AM 59.7 °F 48.2 °F 66% 30.44 in 10.0 mi WSW 4.6 mph - N/A   Clear
6:35 AM 59.9 °F 47.8 °F 64% 30.44 in 10.0 mi NNW 4.6 mph - N/A   Clear
6:55 AM 61.3 °F 48.4 °F 62% 30.44 in 10.0 mi West 4.6 mph - N/A   Clear
7:15 AM 62.6 °F 48.2 °F 59% 30.44 in 10.0 mi NNW 8.1 mph - N/A   Clear
7:35 AM 63.7 °F 48.7 °F 58% 30.44 in 10.0 mi NW 5.8 mph - N/A   Clear
7:55 AM 63.9 °F 48.6 °F 57% 30.44 in 10.0 mi Calm Calm - N/A   Mostly Cloudy
8:15 AM 65.3 °F 49.3 °F 56% 30.44 in 10.0 mi WSW 4.6 mph - N/A   Scattered Clouds
8:35 AM 68.7 °F 49.5 °F 50% 30.43 in 10.0 mi SW 4.6 mph - N/A   Scattered Clouds
8:55 AM 68.9 °F 49.6 °F 50% 30.42 in 10.0 mi Calm Calm - N/A   Clear
9:15 AM 69.8 °F 49.3 °F 48% 30.42 in 10.0 mi Calm Calm - N/A   Clear
9:35 AM 71.6 °F 48.2 °F 43% 30.42 in 10.0 mi Calm Calm - N/A   Clear
9:55 AM 74.3 °F 47.1 °F 38% 30.41 in 10.0 mi North 3.5 mph - N/A   Clear
10:15 AM 76.3 °F 45.3 °F 33% 30.41 in 10.0 mi North 4.6 mph - N/A   Clear
10:35 AM 78.4 °F 45.0 °F 30% 30.40 in 10.0 mi Calm Calm - N/A   Clear
10:55 AM 78.4 °F 46.2 °F 32% 30.39 in 10.0 mi North 4.6 mph - N/A   Clear
11:15 AM 81.1 °F 45.1 °F 28% 30.39 in 10.0 mi ENE 5.8 mph - N/A   Clear
11:35 AM 84.4 °F 41.0 °F 22% 30.37 in 10.0 mi North 5.8 mph - N/A   Clear
11:55 AM 85.1 °F 39.7 °F 20% 30.37 in 10.0 mi NE 5.8 mph - N/A   Scattered Clouds
12:15 PM 82.6 °F 39.0 °F 21% 30.35 in 10.0 mi NW 8.1 mph - N/A   Mostly Cloudy
12:35 PM 81.7 °F 37.0 °F 20% 30.35 in 10.0 mi NW 4.6 mph - N/A   Mostly Cloudy
12:55 PM 77.0 °F 48.9 °F 37% 30.37 in 10.0 mi WSW 12.7 mph 17.3 mph N/A   Overcast
1:15 PM 73.8 °F 49.5 °F 42% 30.37 in 10.0 mi SSW 9.2 mph - N/A   Overcast
1:35 PM 77.0 °F 46.0 °F 33% 30.37 in 10.0 mi SSW 3.5 mph - N/A   Overcast
1:55 PM 73.0 °F 49.1 °F 43% 30.37 in 10.0 mi West 6.9 mph 10.4 mph N/A   Overcast
2:15 PM 74.3 °F 47.5 °F 39% 30.37 in 10.0 mi West 4.6 mph - N/A   Overcast
2:35 PM 76.1 °F 49.6 °F 39% 30.37 in 10.0 mi NW 4.6 mph - N/A   Mostly Cloudy
2:55 PM 82.2 °F 46.2 °F 28% 30.37 in 10.0 mi ESE 11.5 mph 18.4 mph N/A   Mostly Cloudy
3:15 PM 80.4 °F 47.7 °F 32% 30.36 in 10.0 mi ESE 18.4 mph 24.2 mph N/A   Mostly Cloudy
3:35 PM 81.5 °F 48.9 °F 32% 30.36 in 10.0 mi East 23.0 mph 32.2 mph N/A   Scattered Clouds
3:55 PM 77.9 °F 51.4 °F 40% 30.37 in 10.0 mi East 21.9 mph 35.7 mph N/A   Scattered Clouds
4:15 PM 73.9 °F 53.8 °F 49% 30.37 in 10.0 mi ESE 26.5 mph 35.7 mph N/A   Scattered Clouds
4:35 PM 72.0 °F 53.8 °F 53% 30.37 in 10.0 mi ESE 23.0 mph 33.4 mph N/A   Overcast
4:55 PM 69.4 °F 55.0 °F 60% 30.40 in 10.0 mi East 19.6 mph 26.5 mph N/A   Overcast
5:15 PM 69.1 °F 54.3 °F 59% 30.41 in 10.0 mi East 13.8 mph 23.0 mph N/A   Overcast
5:35 PM 64.0 °F 59.0 °F 84% 30.43 in 3.0 mi NW 11.5 mph 17.3 mph N/A   Overcast
5:55 PM 60.8 °F 57.2 °F 88% 30.45 in 4.0 mi North 11.5 mph - N/A   Overcast
6:15 PM 59.7 °F 57.6 °F 93% 30.46 in 1.8 mi North 9.2 mph - N/A   Overcast
6:35 PM 59.0 °F 56.5 °F 91% 30.46 in 2.0 mi WSW 4.6 mph - N/A   Overcast
6:55 PM 59.5 °F 57.6 °F 93% 30.46 in 2.0 mi NNE 3.5 mph - N/A   Overcast
7:15 PM 59.7 °F 57.7 °F 93% 30.46 in 5.0 mi Calm Calm - N/A   Overcast
7:35 PM 59.9 °F 58.1 °F 94% 30.47 in 5.0 mi NNW 3.5 mph - N/A   Overcast
7:55 PM 59.4 °F 57.4 °F 93% 30.48 in 5.0 mi Calm Calm - N/A   Overcast
8:15 PM 59.9 °F 57.2 °F 91% 30.48 in 5.0 mi West 3.5 mph - N/A   Overcast
8:35 PM 59.5 °F 57.0 °F 91% 30.49 in 5.0 mi WSW 4.6 mph - N/A   Overcast
8:55 PM 59.5 °F 57.9 °F 94% 30.48 in 7.0 mi SW 6.9 mph - N/A   Overcast
9:15 PM 59.4 °F 57.4 °F 93% 30.48 in 10.0 mi WSW 4.6 mph - N/A   Overcast
9:35 PM 59.4 °F 56.8 °F 91% 30.48 in 7.0 mi WSW 4.6 mph - N/A   Overcast
9:55 PM 59.4 °F 57.2 °F 93% 30.47 in 10.0 mi Calm Calm - N/A   Overcast
10:15 PM 59.5 °F 57.4 °F 93% 30.47 in 10.0 mi Calm Calm - N/A   Mostly Cloudy
10:35 PM 60.1 °F 57.7 °F 92% 30.47 in 10.0 mi Calm Calm - N/A   Mostly Cloudy
10:55 PM 59.9 °F 57.7 °F 93% 30.47 in 10.0 mi Calm Calm - N/A   Mostly Cloudy
11:15 PM 59.7 °F 57.2 °F 91% 30.48 in 10.0 mi Calm Calm - N/A   Overcast
11:35 PM 59.7 °F 57.9 °F 94% 30.48 in 10.0 mi WSW 4.6 mph - N/A   Overcast
11:55 PM 59.4 °F 57.4 °F 93% 30.48 in 10.0 mi West 4.6 mph - N/A   Overcast